Total_Precipitation_Accumulation
0.00 0.00 0.00 0.00 0.00 0.00 0.00 0.00 0.00 0.00 0.00 0.00 0.00 0.00 0.00 0.00 0.00 0.00 0.00 0.00 0.00 0.00 0.00 0.00 0.00 0.00 0.00 0.00 0.00 0.00 0.00 0.00 0.00 0.00 0.01 0.01 0.01 0.01 0.01 0.01 0.01 0.01 0.01 0.07 0.17 0.11 0.08 0.05 0.06 0.14 0.15 0.14 0.15 0.16 0.10 0.14 0.13 0.24 0.31 0.43 0.44 0.29 0.29 0.34 0.31 0.20 0.14 0.09 0.17 0.12 0.10 0.19 0.14 0.07 0.04 0.01 0.01 0.04 0.01 0.00 0.00 0.04 0.01 0.00 0.00
0.00 0.00 0.00 0.00 0.00 0.00 0.00 0.00 0.00 0.00 0.00 0.00 0.00 0.00 0.00 0.00 0.00 0.00 0.00 0.00 0.00 0.00 0.00 0.00 0.00 0.00 0.00 0.00 0.00 0.00 0.00 0.00 0.00 0.00 0.00 0.01 0.01 0.01 0.01 0.01 0.00 0.01 0.01 0.02 0.03 0.13 0.11 0.08 0.05 0.06 0.06 0.08 0.16 0.18 0.12 0.26 0.18 0.08 0.14 0.26 0.35 0.38 0.48 0.41 0.35 0.30 0.13 0.11 0.23 0.22 0.26 0.22 0.18 0.10 0.06 0.04 0.01 0.00 0.00 0.00 0.01 0.01 0.01 0.07 0.02
0.00 0.00 0.00 0.00 0.00 0.00 0.00 0.00 0.00 0.00 0.00 0.00 0.00 0.00 0.00 0.00 0.00 0.01 0.00 0.00 0.00 0.00 0.00 0.00 0.00 0.00 0.00 0.00 0.00 0.00 0.01 0.01 0.01 0.01 0.01 0.01 0.01 0.01 0.00 0.00 0.01 0.01 0.01 0.01 0.01 0.04 0.12 0.12 0.07 0.10 0.10 0.15 0.14 0.07 0.07 0.09 0.12 0.14 0.12 0.12 0.18 0.23 0.20 0.27 0.37 0.39 0.29 0.27 0.20 0.20 0.22 0.18 0.19 0.20 0.18 0.07 0.06 0.12 0.01 0.00 0.01 0.01 0.00 0.00 0.00
0.00 0.00 0.00 0.00 0.00 0.00 0.00 0.00 0.00 0.00 0.01 0.00 0.00 0.00 0.00 0.00 0.01 0.01 0.00 0.00 0.00 0.00 0.00 0.00 0.00 0.00 0.00 0.00 0.00 0.00 0.00 0.00 0.01 0.01 0.01 0.01 0.01 0.01 0.01 0.00 0.00 0.00 0.00 0.01 0.02 0.01 0.02 0.06 0.08 0.06 0.10 0.19 0.21 0.15 0.11 0.09 0.08 0.10 0.09 0.10 0.09 0.09 0.11 0.17 0.17 0.35 0.22 0.21 0.18 0.23 0.21 0.21 0.14 0.12 0.12 0.06 0.04 0.03 0.03 0.03 0.02 0.01 0.01 0.01 0.00
0.01 0.00 0.00 0.00 0.00 0.00 0.00 0.00 0.00 0.00 0.01 0.01 0.00 0.01 0.01 0.01 0.01 0.01 0.01 0.01 0.00 0.00 0.00 0.00 0.00 0.00 0.00 0.00 0.00 0.00 0.00 0.00 0.00 0.00 0.01 0.01 0.01 0.02 0.01 0.01 0.00 0.00 0.00 0.01 0.01 0.02 0.02 0.03 0.06 0.12 0.10 0.15 0.17 0.16 0.15 0.11 0.07 0.09 0.07 0.06 0.13 0.06 0.11 0.15 0.15 0.23 0.23 0.26 0.15 0.16 0.19 0.25 0.19 0.13 0.12 0.07 0.06 0.03 0.10 0.38 0.05 0.03 0.02 0.04 0.02
0.02 0.00 0.00 0.00 0.00 0.00 0.00 0.00 0.00 0.00 0.01 0.01 0.01 0.01 0.01 0.01 0.01 0.01 0.01 0.01 0.00 0.00 0.00 0.00 0.00 0.00 0.00 0.00 0.00 0.00 0.00 0.00 0.00 0.00 0.00 0.01 0.01 0.02 0.02 0.02 0.01 0.00 0.00 0.01 0.01 0.01 0.01 0.02 0.08 0.12 0.08 0.11 0.15 0.22 0.13 0.19 0.11 0.14 0.10 0.06 0.09 0.10 0.10 0.07 0.10 0.11 0.12 0.17 0.22 0.35 0.22 0.19 0.12 0.09 0.12 0.11 0.05 0.03 0.04 0.04 0.08 0.05 0.09 0.02 0.01
0.00 0.00 0.00 0.00 0.00 0.00 0.00 0.00 0.00 0.01 0.01 0.01 0.01 0.01 0.01 0.01 0.01 0.01 0.01 0.01 0.01 0.01 0.00 0.00 0.00 0.00 0.00 0.00 0.00 0.00 0.00 0.00 0.00 0.00 0.00 0.00 0.00 0.01 0.02 0.02 0.01 0.01 0.00 0.00 0.01 0.03 0.03 0.02 0.02 0.04 0.10 0.09 0.13 0.24 0.25 0.26 0.18 0.24 0.11 0.20 0.07 0.14 0.39 0.43 0.19 0.14 0.11 0.13 0.13 0.30 0.22 0.22 0.18 0.18 0.07 0.09 0.04 0.05 0.16 0.02 0.04 0.07 0.04 0.07 0.04
0.00 0.00 0.00 0.00 0.00 0.00 0.00 0.00 0.01 0.00 0.01 0.01 0.02 0.01 0.01 0.01 0.01 0.01 0.01 0.01 0.01 0.00 0.00 0.00 0.00 0.00 0.00 0.00 0.00 0.00 0.00 0.00 0.00 0.00 0.00 0.00 0.00 0.00 0.01 0.01 0.01 0.02 0.01 0.01 0.01 0.01 0.02 0.01 0.01 0.02 0.04 0.06 0.07 0.10 0.12 0.15 0.10 0.21 0.18 0.45 0.25 0.13 0.25 0.39 0.28 0.24 0.19 0.28 0.28 0.22 0.16 0.18 0.20 0.14 0.13 0.37 0.15 0.11 0.06 0.08 0.04 0.03 0.03 0.01 0.07
0.00 0.00 0.00 0.00 0.00 0.00 0.00 0.00 0.01 0.01 0.01 0.02 0.01 0.01 0.01 0.01 0.01 0.00 0.00 0.00 0.00 0.00 0.00 0.00 0.00 0.00 0.00 0.00 0.00 0.00 0.01 0.01 0.00 0.00 0.00 0.00 0.00 0.01 0.01 0.01 0.01 0.01 0.01 0.01 0.01 0.01 0.02 0.02 0.01 0.03 0.04 0.05 0.07 0.08 0.03 0.07 0.11 0.28 0.21 0.33 0.59 0.54 0.24 0.49 0.49 0.41 0.28 0.42 0.65 0.46 0.41 0.16 0.20 0.20 0.21 0.10 0.04 0.08 0.05 0.06 0.02 0.02 0.10 0.01 0.03
0.01 0.00 0.02 0.01 0.03 0.05 0.28 0.07 0.01 0.01 0.01 0.01 0.01 0.01 0.00 0.01 0.00 0.00 0.00 0.00 0.00 0.00 0.00 0.00 0.00 0.00 0.00 0.00 0.00 0.00 0.00 0.01 0.00 0.00 0.00 0.00 0.00 0.01 0.01 0.01 0.01 0.01 0.01 0.01 0.02 0.01 0.01 0.01 0.02 0.00 0.01 0.03 0.03 0.07 0.06 0.05 0.06 0.05 0.31 0.38 0.36 0.16 0.27 0.61 0.56 0.47 0.23 0.69 0.34 0.40 0.46 0.36 0.27 0.18 0.07 0.04 0.08 0.03 0.03 0.01 0.02 0.00 0.02 0.01 0.02
0.06 0.15 0.19 0.27 0.33 0.37 0.58 0.45 0.20 0.13 0.03 0.02 0.00 0.00 0.00 0.00 0.01 0.00 0.01 0.00 0.00 0.00 0.00 0.00 0.00 0.00 0.00 0.00 0.00 0.01 0.01 0.00 0.00 0.00 0.00 0.00 0.01 0.02 0.02 0.01 0.01 0.01 0.01 0.00 0.01 0.00 0.01 0.02 0.01 0.01 0.02 0.01 0.01 0.01 0.04 0.06 0.30 0.49 0.14 0.34 0.31 0.23 0.27 0.33 0.35 0.45 0.49 0.28 0.81 0.42 0.57 0.64 0.47 0.34 0.10 0.05 0.06 0.02 0.07 0.08 0.07 0.03 0.04 0.01 0.05
0.45 0.50 0.51 0.56 0.50 0.46 0.39 0.42 0.28 0.27 0.14 0.06 0.01 0.01 0.00 0.01 0.01 0.01 0.00 0.00 0.00 0.01 0.01 0.01 0.00 0.00 0.00 0.00 0.01 0.00 0.00 0.00 0.00 0.00 0.00 0.00 0.00 0.01 0.02 0.02 0.02 0.02 0.01 0.00 0.00 0.00 0.00 0.01 0.03 0.03 0.05 0.03 0.02 0.02 0.02 0.03 0.06 0.20 0.47 0.39 0.39 0.59 0.69 0.45 0.24 0.36 0.27 0.44 0.36 0.48 0.49 0.71 0.70 0.29 0.23 0.12 0.13 0.07 0.09 0.07 0.06 0.06 0.16 0.19 0.15
0.22 0.39 0.37 0.36 0.33 0.31 0.40 0.31 0.28 0.26 0.12 0.04 0.01 0.01 0.01 0.01 0.01 0.01 0.01 0.01 0.01 0.01 0.00 0.01 0.01 0.01 0.01 0.01 0.01 0.00 0.00 0.00 0.00 0.00 0.00 0.00 0.00 0.01 0.02 0.02 0.05 0.04 0.02 0.01 0.00 0.00 0.00 0.00 0.01 0.02 0.03 0.03 0.03 0.09 0.08 0.02 0.07 0.07 0.21 0.41 0.09 0.48 0.44 0.50 0.92 0.90 0.59 0.29 0.21 0.21 0.44 0.47 1.01 0.81 0.31 0.43 0.63 0.70 0.36 0.13 0.06 0.12 0.11 0.06 0.03
0.05 0.06 0.09 0.15 0.19 0.16 0.11 0.20 0.16 0.18 0.30 0.21 0.18 0.05 0.01 0.01 0.01 0.01 0.01 0.01 0.01 0.00 0.01 0.01 0.01 0.01 0.01 0.01 0.01 0.00 0.00 0.00 0.00 0.00 0.00 0.00 0.00 0.01 0.02 0.03 0.03 0.05 0.02 0.01 0.01 0.01 0.00 0.00 0.01 0.03 0.04 0.05 0.07 0.06 0.07 0.36 0.17 0.19 0.33 0.54 0.37 0.09 0.18 0.55 0.73 0.86 1.40 1.27 1.34 0.64 0.47 0.28 0.22 0.39 0.89 0.70 0.65 0.47 0.43 0.45 0.37 0.49 0.30 0.22 0.53
0.08 0.06 0.03 0.04 0.07 0.08 0.09 0.05 0.17 0.34 0.48 0.45 0.17 0.04 0.00 0.00 0.00 0.00 0.01 0.01 0.01 0.01 0.01 0.01 0.01 0.01 0.01 0.01 0.01 0.01 0.00 0.00 0.00 0.00 0.00 0.00 0.00 0.01 0.02 0.04 0.04 0.03 0.03 0.02 0.02 0.01 0.02 0.02 0.04 0.05 0.02 0.04 0.02 0.06 0.09 0.08 0.23 0.32 0.11 0.14 0.12 0.13 0.28 0.17 0.42 0.54 0.46 0.56 0.51 0.71 0.93 1.07 0.87 0.95 1.19 0.80 0.51 0.46 0.42 0.87 1.01 0.70 0.53 0.17 0.30
0.09 0.08 0.05 0.04 0.03 0.10 0.32 0.24 0.10 0.26 0.23 0.14 0.17 0.04 0.00 0.02 0.01 0.01 0.02 0.01 0.01 0.01 0.01 0.01 0.01 0.01 0.01 0.01 0.02 0.02 0.00 0.00 0.00 0.00 0.00 0.00 0.00 0.02 0.02 0.05 0.05 0.04 0.04 0.05 0.02 0.01 0.02 0.05 0.04 0.02 0.03 0.04 0.03 0.03 0.06 0.15 0.26 0.23 0.34 0.24 0.29 0.19 0.15 0.21 0.34 0.24 0.29 0.64 0.56 0.57 0.48 0.39 0.80 0.75 0.39 0.78 0.69 0.34 0.36 0.37 0.31 0.16 0.27 0.15 0.10
0.08 0.11 0.33 0.27 0.16 0.17 0.08 0.25 0.27 0.11 0.08 0.04 0.04 0.01 0.01 0.01 0.01 0.01 0.01 0.01 0.01 0.01 0.01 0.01 0.01 0.01 0.01 0.01 0.02 0.01 0.01 0.01 0.02 0.00 0.00 0.00 0.01 0.01 0.04 0.07 0.05 0.05 0.02 0.02 0.02 0.02 0.04 0.01 0.01 0.05 0.05 0.07 0.03 0.02 0.03 0.08 0.27 0.34 0.35 0.23 0.33 0.18 0.30 0.09 0.15 0.31 0.44 0.34 0.17 0.26 0.39 0.35 0.22 0.42 0.57 0.20 0.63 0.81 0.70 0.24 0.08 0.09 0.10 0.12 0.06
0.12 0.11 0.07 0.07 0.23 0.10 0.22 0.10 0.22 0.12 0.09 0.05 0.03 0.02 0.01 0.02 0.02 0.02 0.02 0.01 0.01 0.01 0.01 0.01 0.00 0.01 0.01 0.01 0.01 0.02 0.02 0.03 0.02 0.01 0.00 0.00 0.00 0.03 0.07 0.06 0.06 0.07 0.05 0.03 0.02 0.02 0.03 0.01 0.02 0.07 0.09 0.11 0.08 0.06 0.03 0.13 0.08 0.12 0.26 0.48 0.13 0.11 0.17 0.17 0.14 0.06 0.22 0.23 0.51 0.43 0.29 0.35 0.77 0.40 0.30 0.44 0.26 0.38 0.25 0.33 0.13 0.31 0.23 0.05 0.02
0.15 0.13 0.12 0.28 0.32 0.16 0.06 0.13 0.04 0.30 0.06 0.06 0.05 0.05 0.03 0.05 0.04 0.02 0.02 0.02 0.01 0.01 0.02 0.01 0.00 0.00 0.01 0.02 0.02 0.04 0.04 0.03 0.02 0.01 0.01 0.00 0.05 0.05 0.05 0.09 0.10 0.06 0.05 0.05 0.08 0.09 0.03 0.05 0.03 0.11 0.12 0.14 0.09 0.07 0.05 0.11 0.08 0.24 0.18 0.14 0.19 0.18 0.14 0.18 0.17 0.17 0.15 0.34 0.45 0.47 0.46 0.43 0.67 0.51 0.21 0.13 0.35 0.29 0.29 0.23 0.51 0.23 0.16 0.13 0.27
0.11 0.23 0.20 0.29 0.05 0.22 0.14 0.14 0.18 0.12 0.18 0.02 0.06 0.04 0.05 0.05 0.04 0.04 0.03 0.03 0.02 0.01 0.01 0.02 0.01 0.01 0.01 0.02 0.03 0.04 0.04 0.03 0.03 0.02 0.01 0.02 0.07 0.06 0.03 0.09 0.08 0.07 0.07 0.05 0.08 0.09 0.07 0.07 0.03 0.04 0.08 0.06 0.06 0.07 0.07 0.08 0.22 0.22 0.16 0.25 0.20 0.13 0.10 0.17 0.28 0.19 0.31 0.22 0.56 0.63 0.63 0.44 0.64 0.58 0.71 0.53 0.38 0.14 0.22 0.52 0.31 0.52 0.35 0.05 0.03
0.32 0.32 0.10 0.10 0.18 0.27 0.22 0.22 0.13 0.05 0.06 0.07 0.06 0.04 0.04 0.04 0.04 0.04 0.04 0.02 0.01 0.01 0.02 0.02 0.02 0.02 0.03 0.03 0.04 0.04 0.04 0.04 0.04 0.03 0.02 0.03 0.04 0.07 0.08 0.10 0.09 0.10 0.07 0.05 0.06 0.10 0.09 0.05 0.08 0.08 0.10 0.08 0.12 0.09 0.08 0.07 0.09 0.37 0.17 0.26 0.22 0.22 0.20 0.24 0.22 0.11 0.41 0.34 0.14 0.25 0.41 0.76 0.76 0.55 0.27 0.47 0.34 0.42 0.30 0.36 0.47 0.29 0.29 0.25 0.18
0.24 0.15 0.21 0.12 0.23 0.19 0.13 0.27 0.20 0.04 0.02 0.03 0.04 0.06 0.04 0.04 0.04 0.04 0.04 0.03 0.04 0.05 0.05 0.05 0.03 0.02 0.02 0.02 0.02 0.02 0.02 0.02 0.05 0.04 0.04 0.04 0.05 0.07 0.07 0.10 0.06 0.09 0.11 0.07 0.05 0.07 0.06 0.07 0.05 0.05 0.11 0.13 0.14 0.20 0.10 0.13 0.25 0.36 0.63 0.10 0.17 0.12 0.20 0.31 0.29 0.38 0.27 0.61 0.45 0.28 0.22 0.31 0.80 0.59 0.47 0.27 0.38 0.37 0.40 0.48 0.44 0.34 0.29 0.28 0.25
0.27 0.20 0.43 0.35 0.22 0.10 0.10 0.03 0.02 0.03 0.03 0.03 0.05 0.06 0.04 0.04 0.03 0.04 0.05 0.06 0.07 0.09 0.11 0.12 0.13 0.10 0.06 0.04 0.02 0.02 0.02 0.01 0.01 0.03 0.03 0.04 0.04 0.06 0.06 0.07 0.09 0.07 0.12 0.10 0.06 0.05 0.06 0.04 0.05 0.06 0.12 0.11 0.14 0.18 0.15 0.19 0.16 0.29 0.18 0.46 0.28 0.38 0.25 0.18 0.34 0.21 0.38 0.35 0.30 0.32 0.43 0.57 0.43 0.31 0.47 0.40 0.35 0.54 0.43 0.41 0.48 0.43 0.36 0.31 0.29
0.39 0.22 0.14 0.24 0.20 0.05 0.02 0.02 0.02 0.03 0.04 0.04 0.06 0.07 0.05 0.04 0.04 0.04 0.06 0.09 0.13 0.12 0.13 0.17 0.15 0.12 0.10 0.09 0.08 0.05 0.03 0.02 0.01 0.01 0.03 0.05 0.05 0.06 0.09 0.09 0.07 0.09 0.09 0.14 0.08 0.05 0.04 0.06 0.07 0.05 0.05 0.15 0.11 0.34 0.16 0.29 0.22 0.23 0.19 0.28 0.35 0.40 0.37 0.39 0.24 0.33 0.29 0.49 0.50 0.56 0.42 0.29 0.47 0.35 0.20 0.32 0.28 0.68 0.40 0.42 0.34 0.44 0.39 0.32 0.25
0.36 0.33 0.25 0.12 0.06 0.02 0.02 0.02 0.01 0.03 0.03 0.05 0.09 0.10 0.05 0.05 0.04 0.03 0.06 0.10 0.14 0.16 0.14 0.12 0.11 0.10 0.10 0.08 0.09 0.07 0.05 0.03 0.03 0.02 0.04 0.05 0.08 0.08 0.09 0.11 0.09 0.12 0.17 0.17 0.20 0.14 0.12 0.18 0.04 0.10 0.14 0.21 0.13 0.16 0.25 0.18 0.21 0.23 0.39 0.28 0.28 0.45 0.37 0.47 0.56 0.22 0.37 0.16 0.49 0.31 0.44 0.32 0.59 0.35 0.24 0.34 0.35 0.37 0.27 0.47 0.30 0.34 0.39 0.31 0.36
0.23 0.10 0.04 0.06 0.02 0.01 0.02 0.02 0.02 0.04 0.05 0.05 0.09 0.11 0.06 0.04 0.04 0.04 0.05 0.08 0.10 0.13 0.14 0.15 0.14 0.12 0.13 0.13 0.12 0.10 0.05 0.04 0.04 0.04 0.07 0.11 0.15 0.13 0.10 0.10 0.11 0.16 0.21 0.23 0.17 0.20 0.19 0.27 0.31 0.35 0.25 0.38 0.23 0.21 0.24 0.25 0.23 0.25 0.34 0.41 0.45 0.45 0.31 0.28 0.32 0.40 0.44 0.18 0.39 0.37 0.55 0.30 0.22 0.22 0.39 0.39 0.28 0.47 0.30 0.36 0.27 0.37 0.32 0.44 0.33
0.14 0.10 0.03 0.05 0.07 0.03 0.00 0.00 0.01 0.02 0.04 0.07 0.09 0.09 0.05 0.04 0.04 0.05 0.06 0.07 0.10 0.14 0.18 0.22 0.18 0.16 0.21 0.18 0.15 0.17 0.14 0.10 0.07 0.06 0.06 0.08 0.10 0.16 0.19 0.13 0.11 0.19 0.37 0.38 0.29 0.31 0.29 0.29 0.29 0.36 0.26 0.35 0.40 0.27 0.28 0.27 0.33 0.37 0.42 0.49 0.33 0.22 0.27 0.28 0.17 0.27 0.41 0.22 0.21 0.35 0.40 0.58 0.27 0.53 0.76 0.51 0.26 0.16 0.15 0.46 0.32 0.21 0.23 0.29 0.34
0.04 0.02 0.01 0.01 0.01 0.00 0.00 0.00 0.00 0.01 0.04 0.08 0.12 0.13 0.08 0.06 0.09 0.15 0.20 0.19 0.17 0.19 0.25 0.22 0.19 0.19 0.17 0.27 0.24 0.23 0.26 0.17 0.13 0.10 0.09 0.09 0.09 0.11 0.16 0.15 0.15 0.21 0.31 0.33 0.34 0.26 0.32 0.41 0.37 0.37 0.37 0.41 0.45 0.52 0.59 0.48 0.34 0.34 0.47 0.40 0.29 0.24 0.26 0.29 0.22 0.42 0.25 0.36 0.40 0.33 0.37 0.27 0.36 0.25 0.15 0.28 0.20 0.28 0.20 0.19 0.18 0.33 0.28 0.33 0.33
0.01 0.02 0.01 0.00 0.00 0.00 0.00 0.00 0.00 0.01 0.02 0.08 0.11 0.17 0.20 0.12 0.11 0.15 0.27 0.31 0.28 0.29 0.29 0.23 0.26 0.37 0.36 0.32 0.30 0.31 0.36 0.28 0.21 0.14 0.12 0.11 0.11 0.12 0.14 0.16 0.17 0.26 0.21 0.24 0.32 0.36 0.39 0.42 0.47 0.52 0.52 0.49 0.50 0.54 0.56 0.55 0.50 0.41 0.38 0.37 0.31 0.30 0.32 0.33 0.35 0.27 0.24 0.19 0.19 0.24 0.37 0.23 0.18 0.30 0.21 0.33 0.53 0.47 0.38 0.13 0.16 0.15 0.28 0.32 0.27
0.02 0.00 0.00 0.00 0.00 0.00 0.00 0.00 0.00 0.00 0.01 0.06 0.11 0.13 0.15 0.13 0.10 0.16 0.29 0.27 0.21 0.17 0.26 0.37 0.37 0.32 0.30 0.27 0.25 0.33 0.46 0.41 0.35 0.25 0.20 0.15 0.13 0.16 0.16 0.19 0.24 0.22 0.22 0.26 0.33 0.37 0.47 0.38 0.38 0.38 0.44 0.43 0.46 0.49 0.53 0.47 0.48 0.48 0.38 0.32 0.30 0.29 0.27 0.25 0.23 0.25 0.21 0.20 0.29 0.29 0.44 0.30 0.21 0.20 0.20 0.18 0.22 0.22 0.32 0.27 0.39 0.28 0.21 0.37 0.33
0.01 0.00 0.00 0.00 0.00 0.00 0.00 0.00 0.00 0.00 0.01 0.03 0.09 0.12 0.14 0.14 0.08 0.07 0.11 0.19 0.21 0.21 0.27 0.32 0.36 0.32 0.25 0.23 0.20 0.22 0.33 0.35 0.39 0.33 0.30 0.27 0.30 0.26 0.27 0.30 0.37 0.38 0.33 0.39 0.52 0.36 0.28 0.33 0.36 0.34 0.41 0.46 0.41 0.43 0.48 0.47 0.48 0.39 0.37 0.34 0.30 0.25 0.25 0.23 0.20 0.17 0.18 0.18 0.20 0.19 0.27 0.24 0.26 0.28 0.32 0.18 0.19 0.21 0.25 0.24 0.18 0.23 0.23 0.13 0.15
0.00 0.00 0.00 0.00 0.00 0.00 0.00 0.00 0.00 0.00 0.00 0.01 0.05 0.10 0.12 0.12 0.11 0.07 0.08 0.13 0.18 0.18 0.21 0.31 0.42 0.37 0.25 0.18 0.18 0.23 0.35 0.38 0.34 0.34 0.32 0.36 0.50 0.45 0.50 0.49 0.54 0.59 0.59 0.54 0.50 0.40 0.33 0.37 0.43 0.33 0.40 0.42 0.43 0.47 0.50 0.49 0.55 0.43 0.37 0.35 0.32 0.26 0.24 0.22 0.17 0.20 0.21 0.17 0.18 0.20 0.24 0.23 0.24 0.36 0.30 0.21 0.19 0.22 0.29 0.18 0.23 0.19 0.21 0.22 0.14
0.00 0.00 0.00 0.00 0.00 0.00 0.00 0.00 0.00 0.00 0.00 0.00 0.02 0.07 0.10 0.11 0.12 0.12 0.10 0.13 0.18 0.17 0.18 0.23 0.28 0.35 0.32 0.28 0.28 0.33 0.41 0.42 0.31 0.31 0.31 0.36 0.58 0.59 0.63 0.69 0.69 0.68 0.70 0.70 0.65 0.58 0.50 0.47 0.43 0.38 0.38 0.46 0.61 0.51 0.54 0.50 0.54 0.54 0.48 0.43 0.34 0.24 0.21 0.20 0.25 0.25 0.23 0.16 0.15 0.20 0.20 0.23 0.32 0.31 0.30 0.31 0.24 0.22 0.17 0.22 0.18 0.28 0.21 0.17 0.24
0.00 0.00 0.00 0.00 0.00 0.00 0.00 0.00 0.00 0.00 0.00 0.00 0.01 0.03 0.06 0.08 0.10 0.12 0.11 0.11 0.13 0.16 0.17 0.20 0.23 0.32 0.36 0.32 0.33 0.36 0.40 0.40 0.42 0.39 0.34 0.34 0.46 0.48 0.55 0.59 0.59 0.65 0.63 0.65 0.66 0.66 0.63 0.60 0.59 0.56 0.57 0.60 0.73 0.55 0.53 0.53 0.52 0.49 0.57 0.56 0.43 0.31 0.27 0.20 0.20 0.25 0.26 0.24 0.23 0.21 0.23 0.21 0.23 0.31 0.29 0.46 0.38 0.36 0.23 0.23 0.25 0.17 0.22 0.13 0.14
0.00 0.00 0.00 0.00 0.00 0.00 0.00 0.00 0.00 0.00 0.00 0.00 0.00 0.01 0.03 0.05 0.06 0.10 0.13 0.15 0.16 0.19 0.25 0.27 0.25 0.30 0.39 0.37 0.36 0.35 0.43 0.53 0.50 0.48 0.46 0.38 0.43 0.46 0.54 0.59 0.62 0.69 0.69 0.70 0.66 0.64 0.63 0.68 0.69 0.63 0.63 0.66 0.66 0.60 0.56 0.51 0.53 0.48 0.50 0.58 0.56 0.46 0.36 0.25 0.19 0.16 0.17 0.26 0.29 0.22 0.21 0.28 0.26 0.25 0.22 0.27 0.26 0.28 0.34 0.28 0.33 0.28 0.30 0.43 0.23
0.00 0.00 0.00 0.00 0.00 0.00 0.00 0.00 0.00 0.00 0.00 0.00 0.00 0.00 0.01 0.02 0.04 0.07 0.10 0.13 0.17 0.20 0.24 0.28 0.30 0.31 0.34 0.39 0.42 0.40 0.47 0.54 0.60 0.51 0.49 0.50 0.46 0.51 0.57 0.54 0.58 0.65 0.68 0.76 0.78 0.75 0.69 0.65 0.63 0.64 0.61 0.59 0.58 0.54 0.54 0.56 0.41 0.35 0.43 0.50 0.52 0.48 0.38 0.31 0.24 0.18 0.15 0.14 0.28 0.24 0.20 0.25 0.24 0.23 0.28 0.22 0.36 0.56 0.67 0.64 0.43 0.35 0.22 0.24 0.31
0.00 0.00 0.00 0.00 0.00 0.00 0.00 0.00 0.00 0.00 0.00 0.00 0.00 0.00 0.00 0.01 0.01 0.03 0.07 0.10 0.15 0.19 0.24 0.21 0.19 0.27 0.36 0.46 0.50 0.49 0.46 0.50 0.53 0.49 0.51 0.48 0.51 0.51 0.55 0.55 0.63 0.60 0.60 0.67 0.73 0.76 0.78 0.75 0.73 0.70 0.62 0.61 0.67 0.56 0.49 0.44 0.40 0.35 0.38 0.42 0.46 0.50 0.50 0.32 0.24 0.18 0.15 0.16 0.16 0.29 0.24 0.15 0.23 0.22 0.23 0.23 0.32 0.32 0.34 0.42 0.36 0.50 0.32 0.23 0.26
0.00 0.00 0.00 0.00 0.00 0.00 0.00 0.00 0.00 0.00 0.00 0.00 0.00 0.00 0.00 0.00 0.00 0.01 0.03 0.06 0.10 0.15 0.19 0.19 0.20 0.27 0.44 0.54 0.49 0.50 0.52 0.54 0.54 0.42 0.38 0.41 0.59 0.51 0.54 0.55 0.60 0.59 0.58 0.54 0.53 0.58 0.67 0.76 0.74 0.70 0.62 0.54 0.55 0.57 0.45 0.47 0.41 0.41 0.49 0.43 0.35 0.36 0.37 0.43 0.50 0.25 0.18 0.14 0.16 0.17 0.21 0.28 0.16 0.22 0.25 0.22 0.23 0.53 0.30 0.34 0.43 0.35 0.29 0.22 0.20
0.00 0.00 0.00 0.00 0.00 0.00 0.00 0.00 0.00 0.00 0.00 0.00 0.00 0.00 0.00 0.00 0.00 0.00 0.01 0.02 0.05 0.10 0.14 0.17 0.23 0.33 0.45 0.50 0.49 0.46 0.44 0.53 0.59 0.53 0.50 0.48 0.43 0.50 0.53 0.55 0.59 0.60 0.60 0.62 0.56 0.53 0.61 0.65 0.66 0.65 0.60 0.51 0.49 0.46 0.43 0.38 0.49 0.39 0.35 0.41 0.41 0.34 0.38 0.38 0.37 0.30 0.22 0.19 0.18 0.23 0.21 0.26 0.25 0.19 0.31 0.29 0.27 0.21 0.26 0.32 0.33 0.28 0.26 0.24 0.20
0.00 0.00 0.00 0.00 0.00 0.00 0.00 0.00 0.00 0.00 0.00 0.00 0.00 0.00 0.00 0.00 0.00 0.00 0.00 0.00 0.02 0.04 0.09 0.15 0.23 0.33 0.41 0.50 0.52 0.44 0.42 0.51 0.57 0.52 0.55 0.49 0.46 0.47 0.48 0.54 0.57 0.63 0.68 0.73 0.69 0.60 0.57 0.64 0.66 0.64 0.64 0.50 0.39 0.31 0.30 0.28 0.39 0.54 0.39 0.47 0.47 0.33 0.33 0.42 0.25 0.29 0.24 0.21 0.26 0.39 0.23 0.15 0.18 0.25 0.24 0.17 0.24 0.22 0.10 0.24 0.15 0.33 0.22 0.12 0.14
0.00 0.00 0.00 0.00 0.00 0.00 0.00 0.00 0.00 0.00 0.00 0.00 0.00 0.00 0.00 0.00 0.00 0.00 0.00 0.00 0.00 0.01 0.03 0.09 0.18 0.28 0.36 0.43 0.46 0.43 0.42 0.47 0.48 0.47 0.47 0.44 0.47 0.44 0.42 0.44 0.52 0.57 0.60 0.70 0.69 0.63 0.64 0.66 0.68 0.71 0.71 0.63 0.49 0.41 0.37 0.39 0.37 0.26 0.31 0.36 0.35 0.31 0.23 0.25 0.24 0.23 0.25 0.20 0.21 0.26 0.25 0.39 0.20 0.18 0.27 0.24 0.24 0.23 0.21 0.17 0.17 0.19 0.11 0.07 0.05
0.00 0.00 0.00 0.00 0.00 0.00 0.00 0.00 0.00 0.00 0.00 0.00 0.00 0.00 0.00 0.00 0.00 0.00 0.00 0.00 0.00 0.00 0.00 0.02 0.08 0.17 0.24 0.31 0.35 0.36 0.41 0.46 0.47 0.48 0.42 0.37 0.39 0.36 0.37 0.37 0.44 0.52 0.61 0.73 0.71 0.64 0.63 0.64 0.66 0.69 0.74 0.72 0.59 0.50 0.46 0.52 0.46 0.31 0.30 0.28 0.32 0.22 0.17 0.19 0.23 0.20 0.20 0.25 0.35 0.34 0.38 0.34 0.23 0.19 0.13 0.19 0.27 0.19 0.27 0.19 0.11 0.10 0.08 0.07 0.06
0.00 0.00 0.00 0.00 0.00 0.00 0.00 0.00 0.01 0.00 0.00 0.00 0.00 0.00 0.00 0.00 0.00 0.00 0.00 0.00 0.00 0.00 0.00 0.00 0.01 0.05 0.11 0.17 0.24 0.30 0.34 0.38 0.39 0.43 0.44 0.43 0.42 0.37 0.34 0.38 0.45 0.53 0.62 0.70 0.68 0.60 0.55 0.55 0.57 0.65 0.73 0.76 0.68 0.62 0.56 0.57 0.50 0.40 0.35 0.34 0.27 0.26 0.16 0.12 0.13 0.16 0.23 0.29 0.32 0.37 0.34 0.25 0.22 0.16 0.13 0.13 0.15 0.18 0.11 0.09 0.12 0.09 0.06 0.05 0.04
0.04 0.01 0.00 0.00 0.00 0.00 0.00 0.00 0.00 0.00 0.00 0.00 0.00 0.00 0.00 0.00 0.00 0.00 0.00 0.00 0.00 0.00 0.00 0.00 0.00 0.01 0.03 0.06 0.11 0.17 0.25 0.30 0.29 0.29 0.32 0.36 0.41 0.42 0.43 0.45 0.47 0.51 0.59 0.68 0.70 0.60 0.56 0.58 0.60 0.57 0.57 0.65 0.66 0.59 0.56 0.55 0.48 0.43 0.40 0.33 0.31 0.34 0.21 0.16 0.14 0.10 0.10 0.13 0.18 0.28 0.28 0.22 0.19 0.15 0.11 0.08 0.09 0.12 0.08 0.06 0.04 0.04 0.03 0.04 0.04
0.09 0.00 0.00 0.00 0.00 0.00 0.02 0.00 0.00 0.00 0.00 0.00 0.00 0.00 0.00 0.00 0.00 0.00 0.00 0.00 0.00 0.00 0.00 0.00 0.00 0.00 0.00 0.01 0.03 0.06 0.11 0.17 0.21 0.22 0.23 0.26 0.30 0.34 0.38 0.44 0.49 0.54 0.59 0.62 0.62 0.58 0.58 0.61 0.63 0.62 0.58 0.58 0.59 0.59 0.57 0.56 0.50 0.46 0.38 0.30 0.26 0.26 0.23 0.23 0.19 0.11 0.09 0.10 0.13 0.25 0.27 0.25 0.20 0.14 0.10 0.08 0.09 0.08 0.08 0.07 0.04 0.03 0.03 0.04 0.05
0.12 0.05 0.01 0.00 0.00 0.00 0.01 0.00 0.00 0.00 0.00 0.00 0.00 0.00 0.00 0.00 0.00 0.00 0.00 0.00 0.00 0.00 0.00 0.00 0.00 0.00 0.00 0.00 0.00 0.01 0.03 0.06 0.09 0.13 0.17 0.20 0.25 0.29 0.31 0.34 0.39 0.46 0.57 0.62 0.56 0.51 0.53 0.55 0.57 0.58 0.57 0.54 0.51 0.50 0.52 0.54 0.54 0.50 0.44 0.37 0.32 0.29 0.28 0.22 0.17 0.15 0.14 0.12 0.13 0.20 0.19 0.19 0.13 0.10 0.08 0.07 0.06 0.09 0.08 0.06 0.04 0.05 0.04 0.05 0.09
0.02 0.00 0.01 0.04 0.14 0.03 0.00 0.00 0.00 0.00 0.00 0.00 0.00 0.00 0.00 0.00 0.00 0.00 0.00 0.00 0.00 0.00 0.00 0.00 0.00 0.00 0.00 0.00 0.00 0.00 0.00 0.01 0.02 0.05 0.08 0.12 0.18 0.25 0.30 0.30 0.32 0.37 0.45 0.53 0.54 0.47 0.44 0.47 0.48 0.51 0.54 0.54 0.52 0.49 0.49 0.53 0.57 0.58 0.51 0.43 0.38 0.35 0.31 0.28 0.22 0.19 0.16 0.15 0.13 0.15 0.16 0.15 0.16 0.11 0.09 0.06 0.06 0.04 0.04 0.07 0.09 0.05 0.05 0.06 0.07
0.00 0.00 0.00 0.00 0.00 0.00 0.00 0.00 0.00 0.00 0.00 0.00 0.00 0.00 0.00 0.00 0.00 0.00 0.00 0.00 0.00 0.00 0.00 0.00 0.00 0.00 0.00 0.00 0.00 0.00 0.00 0.00 0.00 0.01 0.03 0.05 0.08 0.13 0.21 0.29 0.32 0.34 0.38 0.45 0.49 0.46 0.40 0.40 0.41 0.42 0.42 0.45 0.51 0.53 0.50 0.51 0.54 0.59 0.58 0.51 0.45 0.41 0.36 0.32 0.29 0.25 0.23 0.19 0.18 0.21 0.19 0.16 0.13 0.11 0.09 0.08 0.06 0.05 0.05 0.05 0.05 0.05 0.06 0.08 0.07
0.00 0.00 0.01 0.00 0.00 0.00 0.00 0.00 0.00 0.00 0.00 0.00 0.00 0.00 0.00 0.00 0.00 0.00 0.00 0.00 0.00 0.00 0.00 0.00 0.00 0.00 0.00 0.00 0.00 0.00 0.00 0.00 0.00 0.00 0.00 0.01 0.03 0.06 0.10 0.16 0.25 0.31 0.33 0.39 0.43 0.44 0.42 0.37 0.35 0.37 0.35 0.36 0.40 0.46 0.47 0.49 0.52 0.57 0.60 0.56 0.49 0.44 0.41 0.38 0.35 0.32 0.26 0.22 0.20 0.20 0.16 0.15 0.13 0.10 0.09 0.08 0.08 0.07 0.07 0.06 0.05 0.05 0.09 0.05 0.05
0.00 0.00 0.00 0.00 0.00 0.00 0.00 0.00 0.00 0.00 0.00 0.00 0.00 0.00 0.00 0.00 0.00 0.00 0.00 0.00 0.00 0.00 0.00 0.00 0.00 0.00 0.00 0.00 0.00 0.00 0.00 0.00 0.00 0.00 0.00 0.00 0.01 0.02 0.04 0.07 0.13 0.21 0.28 0.33 0.37 0.40 0.41 0.39 0.35 0.34 0.34 0.33 0.33 0.35 0.38 0.42 0.45 0.50 0.55 0.53 0.48 0.45 0.43 0.39 0.37 0.33 0.30 0.25 0.21 0.19 0.17 0.15 0.14 0.13 0.11 0.11 0.10 0.09 0.07 0.06 0.05 0.06 0.05 0.04 0.04
0.00 0.00 0.00 0.00 0.00 0.00 0.00 0.00 0.00 0.00 0.00 0.00 0.00 0.00 0.00 0.00 0.00 0.00 0.00 0.00 0.00 0.00 0.00 0.00 0.00 0.00 0.00 0.00 0.00 0.00 0.00 0.00 0.00 0.00 0.00 0.00 0.00 0.00 0.01 0.02 0.04 0.09 0.16 0.23 0.29 0.34 0.36 0.36 0.35 0.34 0.33 0.33 0.33 0.32 0.31 0.33 0.35 0.37 0.41 0.42 0.39 0.37 0.36 0.35 0.35 0.34 0.32 0.28 0.24 0.20 0.18 0.17 0.17 0.16 0.15 0.12 0.10 0.08 0.07 0.05 0.04 0.03 0.03 0.03 0.04